Weather History for Clinton, MO

Change the Weather History Date:

Saturday, March 30, 2013

  Actual Average (KSZL) Record (KSZL)
Temperature  
Mean Temperature 53 °F -  
Max Temperature 60 °F 59 °F 77 °F (1998)
Min Temperature 46 °F 39 °F 28 °F (2003)
Degree Days  
Heating Degree Days 12    
Growing Degree Days 3 (Base 50)    
Moisture  
Dew Point 49 °F    
Average Humidity 88    
Maximum Humidity 100    
Minimum Humidity 77    
Precipitation  
Precipitation 0.00 in - - ()
Sea Level Pressure  
Sea Level Pressure 29.98 in    
Wind  
Wind Speed 4 mph (SE)    
Max Wind Speed 24 mph    
Max Gust Speed 32 mph    
Visibility 8 miles    
Events Fog , Rain , Thunderstorm    
Averages and records for this station are not official NWS values.
T = Trace of Precipitation, MM = Missing Value Source: NWS Daily Summary

Daily Weather History Graph

Daily Weather History Graph

Search for Another Location

Airport:

Trip Planner

Search our weather history database for the weather conditions in past years. The results will help you decide how hot, cold, wet, or windy it might be!

Date:

Astronomy

Mar. 30, 2013 Rise Set
Actual Time 7:02 AM CDT 7:36 PM CDT
Civil Twilight 6:35 AM CDT 8:03 PM CDT
Nautical Twilight 6:04 AM CDT 8:34 PM CDT
Astronomical Twilight 5:32 AM CDT 9:06 PM CDT
Moon 11:40 PM CDT (3/30) 9:01 AM CDT (3/30)
Length of Visible Light 13h 27m
Length of Day
12h 34m
Waning Gibbous, 86% of the Moon is Illuminated
Mar 30
Waning Gibbous
Apr 2
Last Quarter
Apr 10
New
Apr 18
First Quarter
Apr 25
Full

Hourly Weather History & Observations

Time (CDT) Temp. Dew Point Humidity Pressure Visibility Wind Dir Wind Speed Gust Speed Precip Events Conditions
12:15 AM 48.2 °F 44.6 °F 87% 30.13 in 10.0 mi Calm Calm - N/A   Clear
12:55 AM 48.2 °F 44.6 °F 87% 30.11 in 10.0 mi Calm Calm - N/A   Clear
1:35 AM 50.0 °F 44.6 °F 82% 30.12 in 10.0 mi ESE 4.6 mph - N/A   Clear
1:55 AM 50.0 °F 44.6 °F 82% 30.12 in 10.0 mi Calm Calm - N/A   Clear
2:15 AM 50.0 °F 44.6 °F 82% 30.12 in 10.0 mi Calm Calm - N/A   Scattered Clouds
2:35 AM 48.2 °F 44.6 °F 87% 30.10 in 10.0 mi Calm Calm - N/A   Scattered Clouds
2:55 AM 46.4 °F 44.6 °F 93% 30.10 in 10.0 mi Calm Calm - N/A   Partly Cloudy
3:15 AM 48.2 °F 44.6 °F 87% 30.09 in 10.0 mi East 4.6 mph - N/A   Scattered Clouds
3:35 AM 48.2 °F 44.6 °F 87% 30.08 in 10.0 mi Calm Calm - N/A   Partly Cloudy
3:55 AM 48.2 °F 44.6 °F 87% 30.08 in 10.0 mi Calm Calm - N/A   Clear
4:15 AM 48.2 °F 44.6 °F 87% 30.06 in 10.0 mi East 6.9 mph - N/A   Partly Cloudy
4:35 AM 48.2 °F 44.6 °F 87% 30.06 in 10.0 mi ESE 5.8 mph - N/A   Clear
4:55 AM 50.0 °F 44.6 °F 82% 30.05 in 10.0 mi ESE 5.8 mph - N/A   Clear
5:15 AM 48.2 °F 44.6 °F 87% 30.05 in 10.0 mi East 5.8 mph - N/A   Partly Cloudy
5:35 AM 50.0 °F 46.4 °F 87% 30.05 in 10.0 mi East 5.8 mph - N/A   Mostly Cloudy
5:55 AM 50.0 °F 46.4 °F 87% 30.04 in 10.0 mi ESE 6.9 mph - N/A   Overcast
6:15 AM 50.0 °F 46.4 °F 87% 30.03 in 10.0 mi ESE 8.1 mph - N/A   Mostly Cloudy
6:35 AM 51.8 °F 46.4 °F 82% 30.03 in 10.0 mi ESE 6.9 mph - N/A   Mostly Cloudy
6:55 AM 51.8 °F 46.4 °F 82% 30.03 in 10.0 mi SE 8.1 mph - N/A   Mostly Cloudy
7:15 AM 51.8 °F 46.4 °F 82% 30.03 in 10.0 mi SE 10.4 mph - N/A   Mostly Cloudy
7:35 AM 51.8 °F 46.4 °F 82% 30.03 in 10.0 mi SSE 11.5 mph - N/A   Mostly Cloudy
7:55 AM 51.8 °F 46.4 °F 82% 30.03 in 10.0 mi SE 10.4 mph - N/A Thunderstorm Overcast
8:15 AM 51.8 °F 48.2 °F 88% 30.03 in 8.0 mi SSE 8.1 mph - N/A Thunderstorm Thunderstorm
8:35 AM 51.8 °F 48.2 °F 88% 30.03 in 8.0 mi SE 6.9 mph - N/A Rain , Thunderstorm Light Rain
8:55 AM 51.8 °F 48.2 °F 88% 30.04 in 4.0 mi South 4.6 mph - N/A Rain , Thunderstorm Rain
9:15 AM 51.8 °F 48.2 °F 88% 30.04 in 1.8 mi SSE 11.5 mph 16.1 mph N/A Rain , Thunderstorm Rain
9:35 AM 51.8 °F 50.0 °F 94% 30.03 in 1.5 mi SSE 8.1 mph - N/A Rain Light Rain
9:55 AM 51.8 °F 50.0 °F 94% 29.98 in 2.0 mi SSE 21.9 mph - N/A   Overcast
10:15 AM 51.8 °F 50.0 °F 94% 29.99 in 3.0 mi South 13.8 mph 20.7 mph N/A Rain Light Rain
10:35 AM 51.8 °F 50.0 °F 94% 29.92 in 5.0 mi SSE 24.2 mph 32.2 mph N/A   Mostly Cloudy
10:55 AM 51.8 °F 48.2 °F 88% 29.97 in 7.0 mi SE 3.5 mph - N/A   Mostly Cloudy
11:15 AM 53.6 °F 50.0 °F 88% 29.96 in 8.0 mi SSE 11.5 mph 16.1 mph N/A   Mostly Cloudy
11:35 AM 53.6 °F 50.0 °F 88% 29.97 in 8.0 mi SE 10.4 mph 18.4 mph N/A   Mostly Cloudy
11:55 AM 53.6 °F 50.0 °F 88% 29.98 in 8.0 mi SSE 8.1 mph - N/A   Overcast
12:15 PM 53.6 °F 50.0 °F 88% 29.99 in 8.0 mi South 10.4 mph - N/A   Overcast
12:35 PM 53.6 °F 51.8 °F 94% 29.99 in 8.0 mi South 6.9 mph - N/A   Overcast
12:55 PM 55.4 °F 51.8 °F 88% 29.98 in 8.0 mi SSE 10.4 mph - N/A   Overcast
1:15 PM 55.4 °F 51.8 °F 88% 29.98 in 8.0 mi South 9.2 mph - N/A   Overcast
1:35 PM 55.4 °F 51.8 °F 88% 29.98 in 8.0 mi South 6.9 mph - N/A   Overcast
1:55 PM 55.4 °F 51.8 °F 88% 29.99 in 9.0 mi Calm Calm - N/A   Overcast
2:15 PM 55.4 °F 51.8 °F 88% 29.94 in 9.0 mi South 9.2 mph - N/A   Overcast
2:35 PM 57.2 °F 51.8 °F 82% 29.95 in 9.0 mi SSE 6.9 mph - N/A   Overcast
2:55 PM 57.2 °F 51.8 °F 82% 29.94 in 10.0 mi SE 5.8 mph - N/A   Overcast
3:15 PM 57.2 °F 51.8 °F 82% 29.93 in 9.0 mi Calm Calm - N/A   Overcast
3:35 PM 57.2 °F 53.6 °F 88% 29.93 in 9.0 mi Calm Calm - N/A   Overcast
3:55 PM 57.2 °F 53.6 °F 88% 29.92 in 10.0 mi SSE 3.5 mph - N/A   Overcast
4:15 PM 59.0 °F 53.6 °F 82% 29.91 in 10.0 mi South 4.6 mph - N/A   Mostly Cloudy
4:35 PM 60.8 °F 53.6 °F 77% 29.90 in 10.0 mi SE 4.6 mph - N/A   Mostly Cloudy
5:15 PM 60.8 °F 53.6 °F 77% 29.89 in 10.0 mi ESE 4.6 mph - N/A   Scattered Clouds
5:35 PM 60.8 °F 53.6 °F 77% 29.89 in 10.0 mi ESE 3.5 mph - N/A   Scattered Clouds
5:55 PM 60.8 °F 53.6 °F 77% 29.88 in 10.0 mi ESE 4.6 mph - N/A   Partly Cloudy
6:15 PM 60.8 °F 53.6 °F 77% 29.89 in 10.0 mi East 4.6 mph - N/A   Mostly Cloudy
6:35 PM 60.8 °F 53.6 °F 77% 29.88 in 10.0 mi East 5.8 mph - N/A   Overcast
6:55 PM 59.0 °F 53.6 °F 82% 29.89 in 9.0 mi East 4.6 mph - N/A   Mostly Cloudy
7:15 PM 59.0 °F 53.6 °F 82% 29.89 in 10.0 mi Calm Calm - N/A   Mostly Cloudy
7:35 PM 57.2 °F 53.6 °F 88% 29.90 in 10.0 mi Calm Calm - N/A   Mostly Cloudy
7:55 PM 57.2 °F 53.6 °F 88% 29.90 in 10.0 mi Calm Calm - N/A   Scattered Clouds
8:15 PM 55.4 °F 53.6 °F 94% 29.91 in 10.0 mi Calm Calm - N/A   Mostly Cloudy
8:35 PM 53.6 °F 53.6 °F 100% 29.91 in 9.0 mi Calm Calm - N/A   Mostly Cloudy
8:55 PM 53.6 °F 51.8 °F 94% 29.91 in 8.0 mi Calm Calm - N/A   Partly Cloudy
9:15 PM 53.6 °F 53.6 °F 100% 29.91 in 7.0 mi Calm Calm - N/A   Clear
9:35 PM 51.8 °F 51.8 °F 100% 29.92 in 9.0 mi Calm Calm - N/A   Clear
9:55 PM 51.8 °F 51.8 °F 100% 29.92 in 7.0 mi Calm Calm - N/A   Clear
10:15 PM 50.0 °F 50.0 °F 100% 29.92 in 5.0 mi Calm Calm - N/A   Clear
10:55 PM 48.2 °F 48.2 °F 100% 29.93 in 0.5 mi Calm Calm - N/A Fog Fog
11:15 PM 48.2 °F 48.2 °F 100% 29.92 in 3.0 mi Calm Calm - N/A   Clear
11:35 PM 48.2 °F 48.2 °F 100% 29.92 in 0.8 mi Calm Calm - N/A   Mist
11:55 PM 46.4 °F 46.4 °F 100% 29.92 in 2.0 mi Calm Calm - N/A   Clear